{"data":{"norad_id":68644,"intl_designator":"2026-075J","name":"QIANFAN-117","alt_names":[],"object_type":"PAYLOAD","status":"ACTIVE","operator":null,"country":"PRC","launch_date":"2026-04-07","launch_site_code":"WSC","launch_vehicle":null,"mission":null,"orbit_class":"UNKNOWN","rcs_meters":null,"size_class":null,"mass_kg":null,"dimensions":null,"purposes":[],"wikipedia_slug":null,"has_3d_model":false,"image_url":null,"decayed_at":null,"tle_current":{"epoch":"2026-05-24T18:13:28.169184Z","epoch_age_seconds":89729,"freshness":"FRESH","line1":"1 68644U 26075J   26144.75935381  .00000045  00000+0  38556-4 0  9995","line2":"2 68644  88.9879 323.4132 0011443  74.1908 286.0513 13.67076666  6637","mean_motion":13.67076666,"eccentricity":0.0011443,"inclination_deg":88.9879,"raan_deg":323.4132,"arg_perigee_deg":74.1908,"mean_anomaly_deg":286.0513,"bstar":3.8556e-5,"rev_number":663,"period_min":105.33425343389,"perigee_km":1001.6305050601,"apogee_km":1018.5391895799,"semimajor_km":7388.22184732,"source":"CELESTRAK","updated_at":"2026-05-25T13:38:07.991906Z"}}}